Time,TemperatureF,DewpointF,PressureIn,WindDirection,WindDirectionDegrees,WindSpeedMPH,WindSpeedGustMPH,Humidity,HourlyPrecipIn,Conditions,Clouds,dailyrainin,SoftwareType,DateUTC
2013-05-15 00:00:00,66.7,51.5,29.79,West,270,1.0,0.0,58,0.00,,---,0.00,VWS V14.01,2013-05-15 07:00:00,
2013-05-15 00:05:00,66.6,50.9,29.79,NNE,15,0.0,0.0,57,0.00,,---,0.00,VWS V14.01,2013-05-15 07:05:00,
2013-05-15 00:10:00,66.5,50.8,29.79,SE,135,0.0,0.0,57,0.00,,---,0.00,VWS V14.01,2013-05-15 07:10:00,
2013-05-15 00:15:00,66.4,50.7,29.79,ESE,112,0.0,0.0,57,0.00,,---,0.00,VWS V14.01,2013-05-15 07:15:00,
2013-05-15 00:20:00,66.2,50.5,29.80,SSE,161,0.0,0.0,57,0.00,,---,0.00,VWS V14.01,2013-05-15 07:20:00,
2013-05-15 00:25:00,66.1,50.0,29.79,East,89,0.0,0.0,56,0.00,,---,0.00,VWS V14.01,2013-05-15 07:25:00,
2013-05-15 00:30:00,65.9,49.3,29.79,South,173,0.0,0.0,55,0.00,,---,0.00,VWS V14.01,2013-05-15 07:30:00,
2013-05-15 00:36:00,65.8,48.7,29.79,NE,39,0.0,0.0,54,0.00,,---,0.00,VWS V14.01,2013-05-15 07:36:00,
2013-05-15 00:41:00,65.5,48.4,29.80,NNW,331,0.0,0.0,54,0.00,,---,0.00,VWS V14.01,2013-05-15 07:41:00,
2013-05-15 00:46:00,65.3,48.2,29.80,NW,314,0.0,0.0,54,0.00,,---,0.00,VWS V14.01,2013-05-15 07:46:00,
2013-05-15 00:51:00,65.1,48.5,29.80,ENE,63,0.0,0.0,55,0.00,,---,0.00,VWS V14.01,2013-05-15 07:51:00,
2013-05-15 00:56:00,64.9,48.8,29.80,East,100,0.0,0.0,56,0.00,,---,0.00,VWS V14.01,2013-05-15 07:56:00,
2013-05-15 01:01:00,64.7,49.1,29.80,SW,221,0.0,0.0,57,0.00,,---,0.00,VWS V14.01,2013-05-15 08:01:00,
2013-05-15 01:06:00,64.3,48.8,29.80,ENE,61,0.0,0.0,57,0.00,,---,0.00,VWS V14.01,2013-05-15 08:06:00,
2013-05-15 01:11:00,64.1,48.6,29.80,NW,325,0.0,0.0,57,0.00,,---,0.00,VWS V14.01,2013-05-15 08:11:00,
2013-05-15 01:16:00,63.8,48.3,29.80,North,355,0.0,0.0,57,0.00,,---,0.00,VWS V14.01,2013-05-15 08:16:00,
2013-05-15 01:21:00,63.7,47.7,29.80,SE,135,0.0,0.0,56,0.00,,---,0.00,VWS V14.01,2013-05-15 08:21:00,
2013-05-15 01:26:00,63.5,47.5,29.80,ESE,107,0.0,0.0,56,0.00,,---,0.00,VWS V14.01,2013-05-15 08:26:00,
2013-05-15 01:31:00,63.4,47.5,29.80,SSW,206,0.0,0.0,56,0.00,,---,0.00,VWS V14.01,2013-05-15 08:31:00,
2013-05-15 01:36:00,63.2,47.3,29.80,South,178,0.0,0.0,56,0.00,,---,0.00,VWS V14.01,2013-05-15 08:36:00,
2013-05-15 01:41:00,63.1,47.2,29.80,NE,53,0.0,0.0,56,0.00,,---,0.00,VWS V14.01,2013-05-15 08:41:00,
2013-05-15 01:46:00,62.9,47.5,29.80,East,91,0.0,0.0,57,0.00,,---,0.00,VWS V14.01,2013-05-15 08:46:00,
2013-05-15 01:51:00,62.7,47.3,29.80,East,99,0.0,0.0,57,0.00,,---,0.00,VWS V14.01,2013-05-15 08:51:00,
2013-05-15 01:56:00,62.5,47.1,29.80,East,101,0.0,0.0,57,0.00,,---,0.00,VWS V14.01,2013-05-15 08:56:00,
2013-05-15 02:01:00,62.3,47.3,29.80,ENE,74,0.0,0.0,58,0.00,,---,0.00,VWS V14.01,2013-05-15 09:01:00,
2013-05-15 02:06:00,62.1,46.7,29.80,NNE,30,0.0,0.0,57,0.00,,---,0.00,VWS V14.01,2013-05-15 09:06:00,
2013-05-15 02:11:00,62.0,46.6,29.79,NNE,30,0.0,0.0,57,0.00,,---,0.00,VWS V14.01,2013-05-15 09:11:00,
2013-05-15 02:16:00,61.9,47.0,29.79,NE,51,0.0,0.0,58,0.00,,---,0.00,VWS V14.01,2013-05-15 09:16:00,
2013-05-15 02:21:00,61.9,46.5,29.80,ESE,121,0.0,0.0,57,0.00,,---,0.00,VWS V14.01,2013-05-15 09:21:00,
2013-05-15 02:26:00,61.8,46.4,29.80,ESE,117,0.0,0.0,57,0.00,,---,0.00,VWS V14.01,2013-05-15 09:26:00,
2013-05-15 02:32:00,61.8,46.4,29.80,SE,146,2.0,0.0,57,0.00,,---,0.00,VWS V14.01,2013-05-15 09:32:00,
2013-05-15 02:37:00,61.7,45.9,29.80,NE,34,0.0,0.0,56,0.00,,---,0.00,VWS V14.01,2013-05-15 09:37:00,
2013-05-15 02:42:00,61.6,46.2,29.80,ESE,116,0.0,0.0,57,0.00,,---,0.00,VWS V14.01,2013-05-15 09:42:00,
2013-05-15 02:47:00,61.4,45.6,29.80,East,81,0.0,0.0,56,0.00,,---,0.00,VWS V14.01,2013-05-15 09:47:00,
2013-05-15 02:52:00,61.2,45.4,29.80,ESE,122,1.0,0.0,56,0.00,,---,0.00,VWS V14.01,2013-05-15 09:52:00,
2013-05-15 02:57:00,61.0,45.7,29.81,WSW,243,0.0,0.0,57,0.00,,---,0.00,VWS V14.01,2013-05-15 09:57:00,
2013-05-15 03:02:00,60.8,45.0,29.80,SE,142,0.0,0.0,56,0.00,,---,0.00,VWS V14.01,2013-05-15 10:02:00,
2013-05-15 03:07:00,60.5,45.2,29.81,SSW,207,0.0,0.0,57,0.00,,---,0.00,VWS V14.01,2013-05-15 10:07:00,
2013-05-15 03:12:00,60.2,45.4,29.80,East,94,0.0,0.0,58,0.00,,---,0.00,VWS V14.01,2013-05-15 10:12:00,
2013-05-15 03:17:00,59.8,45.0,29.80,East,89,0.0,0.0,58,0.00,,---,0.00,VWS V14.01,2013-05-15 10:17:00,
2013-05-15 03:22:00,59.5,45.2,29.80,East,94,1.0,0.0,59,0.00,,---,0.00,VWS V14.01,2013-05-15 10:22:00,
2013-05-15 03:27:00,59.2,45.3,29.80,ESE,117,0.0,0.0,60,0.00,,---,0.00,VWS V14.01,2013-05-15 10:27:00,
2013-05-15 03:32:00,59.0,45.2,29.80,SE,130,0.0,0.0,60,0.00,,---,0.00,VWS V14.01,2013-05-15 10:32:00,
2013-05-15 03:37:00,58.7,44.9,29.80,ESE,107,0.0,0.0,60,0.00,,---,0.00,VWS V14.01,2013-05-15 10:37:00,
2013-05-15 03:42:00,58.5,44.7,29.80,East,92,0.0,0.0,60,0.00,,---,0.00,VWS V14.01,2013-05-15 10:42:00,
2013-05-15 03:47:00,58.4,45.0,29.80,ENE,74,0.0,0.0,61,0.00,,---,0.00,VWS V14.01,2013-05-15 10:47:00,
2013-05-15 03:52:00,58.2,45.3,29.80,ESE,120,0.0,0.0,62,0.00,,---,0.00,VWS V14.01,2013-05-15 10:52:00,
2013-05-15 03:57:00,58.1,45.2,29.80,ESE,107,0.0,0.0,62,0.00,,---,0.00,VWS V14.01,2013-05-15 10:57:00,
2013-05-15 04:03:00,58.0,45.1,29.81,ESE,107,0.0,0.0,62,0.00,,---,0.00,VWS V14.01,2013-05-15 11:03:00,
2013-05-15 04:08:00,57.8,44.9,29.81,South,177,0.0,0.0,62,0.00,,---,0.00,VWS V14.01,2013-05-15 11:08:00,
2013-05-15 04:13:00,57.8,44.9,29.81,East,82,0.0,0.0,62,0.00,,---,0.00,VWS V14.01,2013-05-15 11:13:00,
2013-05-15 04:18:00,57.7,44.8,29.81,ENE,57,0.0,0.0,62,0.00,,---,0.00,VWS V14.01,2013-05-15 11:18:00,
2013-05-15 04:24:00,57.8,44.9,29.81,SE,144,0.0,0.0,62,0.00,,---,0.00,VWS V14.01,2013-05-15 11:24:00,
2013-05-15 04:29:00,57.8,44.9,29.82,East,91,0.0,0.0,62,0.00,,---,0.00,VWS V14.01,2013-05-15 11:29:00,
2013-05-15 04:34:00,57.8,44.9,29.82,East,82,0.0,0.0,62,0.00,,---,0.00,VWS V14.01,2013-05-15 11:34:00,
2013-05-15 04:39:00,57.8,44.9,29.82,NNW,341,3.0,0.0,62,0.00,,---,0.00,VWS V14.01,2013-05-15 11:39:00,
2013-05-15 04:44:00,57.8,45.3,29.82,ENE,74,0.0,0.0,63,0.00,,---,0.00,VWS V14.01,2013-05-15 11:44:00,
2013-05-15 04:49:00,57.8,44.9,29.82,SSE,163,0.0,0.0,62,0.00,,---,0.00,VWS V14.01,2013-05-15 11:49:00,
2013-05-15 04:54:00,57.8,44.9,29.82,East,90,0.0,0.0,62,0.00,,---,0.00,VWS V14.01,2013-05-15 11:54:00,
2013-05-15 04:59:00,57.7,45.2,29.82,East,96,1.0,0.0,63,0.00,,---,0.00,VWS V14.01,2013-05-15 11:59:00,
2013-05-15 05:04:00,57.5,44.6,29.82,ESE,117,0.0,0.0,62,0.00,,---,0.00,VWS V14.01,2013-05-15 12:04:00,
2013-05-15 05:09:00,57.3,44.8,29.83,SSE,165,0.0,0.0,63,0.00,,---,0.00,VWS V14.01,2013-05-15 12:09:00,
2013-05-15 05:14:00,57.0,44.1,29.83,East,98,2.0,0.0,62,0.00,,---,0.00,VWS V14.01,2013-05-15 12:14:00,
2013-05-15 05:19:00,56.8,44.3,29.83,ENE,63,0.0,0.0,63,0.00,,---,0.00,VWS V14.01,2013-05-15 12:19:00,
2013-05-15 05:24:00,56.7,44.3,29.83,East,80,0.0,0.0,63,0.00,,---,0.00,VWS V14.01,2013-05-15 12:24:00,
2013-05-15 05:29:00,56.5,44.1,29.83,ENE,78,0.0,0.0,63,0.00,,---,0.00,VWS V14.01,2013-05-15 12:29:00,
2013-05-15 05:35:00,56.4,44.4,29.83,ENE,78,0.0,0.0,64,0.00,,---,0.00,VWS V14.01,2013-05-15 12:35:00,
2013-05-15 05:40:00,56.2,44.6,29.83,ESE,116,0.0,0.0,65,0.00,,---,0.00,VWS V14.01,2013-05-15 12:40:00,
2013-05-15 05:45:00,56.1,44.9,29.83,ESE,111,0.0,0.0,66,0.00,,---,0.00,VWS V14.01,2013-05-15 12:45:00,
2013-05-15 05:50:00,55.9,44.3,29.83,ESE,111,0.0,0.0,65,0.00,,---,0.00,VWS V14.01,2013-05-15 12:50:00,
2013-05-15 05:55:00,55.8,44.2,29.83,SW,225,0.0,0.0,65,0.00,,---,0.00,VWS V14.01,2013-05-15 12:55:00,
2013-05-15 06:00:00,55.8,44.6,29.83,SSW,194,0.0,0.0,66,0.00,,---,0.00,VWS V14.01,2013-05-15 13:00:00,
2013-05-15 06:06:00,55.8,45.0,29.83,WSW,244,0.0,0.0,67,0.00,,---,0.00,VWS V14.01,2013-05-15 13:06:00,
2013-05-15 06:11:00,55.8,44.2,29.83,West,266,0.0,0.0,65,0.00,,---,0.00,VWS V14.01,2013-05-15 13:11:00,
2013-05-15 06:16:00,55.8,44.2,29.84,SW,235,0.0,0.0,65,0.00,,---,0.00,VWS V14.01,2013-05-15 13:16:00,
2013-05-15 06:21:00,55.8,44.6,29.84,SW,235,0.0,0.0,66,0.00,,---,0.00,VWS V14.01,2013-05-15 13:21:00,
2013-05-15 06:26:00,55.8,44.2,29.84,SW,234,0.0,0.0,65,0.00,,---,0.00,VWS V14.01,2013-05-15 13:26:00,
2013-05-15 06:31:00,55.8,44.2,29.84,WSW,238,0.0,0.0,65,0.00,,---,0.00,VWS V14.01,2013-05-15 13:31:00,
2013-05-15 06:36:00,55.9,44.7,29.84,SW,223,0.0,0.0,66,0.00,,---,0.00,VWS V14.01,2013-05-15 13:36:00,
2013-05-15 06:41:00,56.1,44.9,29.84,SW,231,0.0,0.0,66,0.00,,---,0.00,VWS V14.01,2013-05-15 13:41:00,
2013-05-15 06:46:00,56.3,45.1,29.85,SW,231,0.0,0.0,66,0.00,,---,0.00,VWS V14.01,2013-05-15 13:46:00,
2013-05-15 06:51:00,56.4,45.2,29.85,SW,231,0.0,0.0,66,0.00,,---,0.00,VWS V14.01,2013-05-15 13:51:00,
2013-05-15 06:56:00,56.6,45.0,29.85,NW,315,2.0,0.0,65,0.00,,---,0.00,VWS V14.01,2013-05-15 13:56:00,
2013-05-15 07:01:00,56.7,44.7,29.85,ENE,58,0.0,0.0,64,0.00,,---,0.00,VWS V14.01,2013-05-15 14:01:00,
2013-05-15 07:06:00,56.9,44.9,29.85,SSW,194,0.0,0.0,64,0.00,,---,0.00,VWS V14.01,2013-05-15 14:06:00,
2013-05-15 07:11:00,57.2,44.7,29.85,WSW,239,0.0,0.0,63,0.00,,---,0.00,VWS V14.01,2013-05-15 14:11:00,
2013-05-15 07:17:00,57.4,44.9,29.85,SE,124,0.0,0.0,63,0.00,,---,0.00,VWS V14.01,2013-05-15 14:17:00,
2013-05-15 07:22:00,57.6,44.7,29.85,SSE,166,0.0,0.0,62,0.00,,---,0.00,VWS V14.01,2013-05-15 14:22:00,
2013-05-15 07:27:00,57.8,44.5,29.85,NW,313,1.0,0.0,61,0.00,,---,0.00,VWS V14.01,2013-05-15 14:27:00,
2013-05-15 07:32:00,58.0,44.6,29.85,NNE,31,0.0,0.0,61,0.00,,---,0.00,VWS V14.01,2013-05-15 14:32:00,
2013-05-15 07:37:00,58.1,45.2,29.85,NE,37,0.0,0.0,62,0.00,,---,0.00,VWS V14.01,2013-05-15 14:37:00,
2013-05-15 07:42:00,58.1,45.2,29.86,SW,231,1.0,0.0,62,0.00,,---,0.00,VWS V14.01,2013-05-15 14:42:00,
2013-05-15 07:47:00,58.2,45.3,29.86,ESE,104,0.0,0.0,62,0.00,,---,0.00,VWS V14.01,2013-05-15 14:47:00,
2013-05-15 07:52:00,58.4,45.5,29.86,ESE,119,0.0,0.0,62,0.00,,---,0.00,VWS V14.01,2013-05-15 14:52:00,
2013-05-15 07:57:00,58.6,45.2,29.86,West,280,1.0,0.0,61,0.00,,---,0.00,VWS V14.01,2013-05-15 14:57:00,
2013-05-15 08:03:00,58.7,44.9,29.86,NE,40,0.0,0.0,60,0.00,,---,0.00,VWS V14.01,2013-05-15 15:03:00,
2013-05-15 08:08:00,58.9,45.1,29.86,East,95,1.0,0.0,60,0.00,,---,0.00,VWS V14.01,2013-05-15 15:08:00,
2013-05-15 08:13:00,59.4,45.1,29.87,WSW,251,1.0,0.0,59,0.00,,---,0.00,VWS V14.01,2013-05-15 15:13:00,
2013-05-15 08:18:00,60.0,44.7,29.86,NW,310,1.0,0.0,57,0.00,,---,0.00,VWS V14.01,2013-05-15 15:18:00,
2013-05-15 08:23:00,60.5,45.7,29.87,East,92,1.0,0.0,58,0.00,,---,0.00,VWS V14.01,2013-05-15 15:23:00,
2013-05-15 08:28:00,60.9,45.6,29.87,SE,124,1.0,0.0,57,0.00,,---,0.00,VWS V14.01,2013-05-15 15:28:00,
2013-05-15 08:33:00,60.9,45.6,29.87,East,87,1.0,0.0,57,0.00,,---,0.00,VWS V14.01,2013-05-15 15:33:00,
2013-05-15 08:38:00,61.0,45.2,29.87,East,86,0.0,0.0,56,0.00,,---,0.00,VWS V14.01,2013-05-15 15:38:00,
2013-05-15 08:43:00,61.0,45.7,29.87,NE,47,0.0,0.0,57,0.00,,---,0.00,VWS V14.01,2013-05-15 15:43:00,
2013-05-15 08:48:00,61.0,45.7,29.87,North,10,1.0,0.0,57,0.00,,---,0.00,VWS V14.01,2013-05-15 15:48:00,
2013-05-15 08:54:00,61.1,45.8,29.87,NNE,24,3.0,0.0,57,0.00,,---,0.00,VWS V14.01,2013-05-15 15:54:00,
2013-05-15 08:59:00,61.3,46.0,29.87,NNW,339,0.0,0.0,57,0.00,,---,0.00,VWS V14.01,2013-05-15 15:59:00,
2013-05-15 09:04:00,61.5,46.1,29.87,SW,234,1.0,0.0,57,0.00,,---,0.00,VWS V14.01,2013-05-15 16:04:00,
2013-05-15 09:09:00,61.6,45.8,29.87,NNE,21,0.0,0.0,56,0.00,,---,0.00,VWS V14.01,2013-05-15 16:09:00,
2013-05-15 09:14:00,61.9,46.0,29.87,ENE,60,1.0,0.0,56,0.00,,---,0.00,VWS V14.01,2013-05-15 16:14:00,
2013-05-15 09:20:00,62.1,45.8,29.87,NNW,330,1.0,0.0,55,0.00,,---,0.00,VWS V14.01,2013-05-15 16:20:00,
2013-05-15 09:24:00,62.3,46.4,29.87,ENE,69,0.0,0.0,56,0.00,,---,0.00,VWS V14.01,2013-05-15 16:24:00,
2013-05-15 09:30:00,62.5,46.6,29.87,West,262,1.0,0.0,56,0.00,,---,0.00,VWS V14.01,2013-05-15 16:30:00,
2013-05-15 09:35:00,63.0,46.1,29.87,NNE,22,0.0,0.0,54,0.00,,---,0.00,VWS V14.01,2013-05-15 16:35:00,
2013-05-15 09:40:00,63.4,47.0,29.87,SE,131,4.0,0.0,55,0.00,,---,0.00,VWS V14.01,2013-05-15 16:40:00,
2013-05-15 09:45:00,63.6,46.2,29.87,West,271,3.0,0.0,53,0.00,,---,0.00,VWS V14.01,2013-05-15 16:45:00,
2013-05-15 09:50:00,63.8,46.4,29.87,NW,324,3.0,0.0,53,0.00,,---,0.00,VWS V14.01,2013-05-15 16:50:00,
2013-05-15 09:55:00,64.1,46.6,29.87,NW,319,1.0,0.0,53,0.00,,---,0.00,VWS V14.01,2013-05-15 16:55:00,
2013-05-15 10:00:00,64.7,46.7,29.87,WNW,288,2.0,0.0,52,0.00,,---,0.00,VWS V14.01,2013-05-15 17:00:00,
2013-05-15 10:05:00,65.0,46.5,29.87,NNW,340,2.0,0.0,51,0.00,,---,0.00,VWS V14.01,2013-05-15 17:05:00,
2013-05-15 10:10:00,65.2,47.2,29.87,ESE,111,1.0,0.0,52,0.00,,---,0.00,VWS V14.01,2013-05-15 17:10:00,
2013-05-15 10:15:00,65.4,47.3,29.87,WSW,242,1.0,0.0,52,0.00,,---,0.00,VWS V14.01,2013-05-15 17:15:00,
2013-05-15 10:20:00,65.9,47.3,29.88,North,360,2.0,0.0,51,0.00,,---,0.00,VWS V14.01,2013-05-15 17:20:00,
2013-05-15 10:26:00,66.3,47.1,29.88,North,9,1.0,0.0,50,0.00,,---,0.00,VWS V14.01,2013-05-15 17:26:00,
2013-05-15 10:31:00,66.7,48.0,29.87,East,85,2.0,0.0,51,0.00,,---,0.00,VWS V14.01,2013-05-15 17:31:00,
2013-05-15 10:36:00,67.5,47.7,29.87,WNW,288,2.0,0.0,49,0.00,,---,0.00,VWS V14.01,2013-05-15 17:36:00,
2013-05-15 10:42:00,68.3,47.3,29.87,WSW,255,2.0,0.0,47,0.00,,---,0.00,VWS V14.01,2013-05-15 17:42:00,
2013-05-15 10:47:00,68.8,48.3,29.87,North,355,4.0,0.0,48,0.00,,---,0.00,VWS V14.01,2013-05-15 17:47:00,
2013-05-15 10:52:00,69.3,48.2,29.88,NNW,348,2.0,0.0,47,0.00,,---,0.00,VWS V14.01,2013-05-15 17:52:00,
2013-05-15 10:57:00,69.9,48.2,29.88,WNW,294,3.0,0.0,46,0.00,,---,0.00,VWS V14.01,2013-05-15 17:57:00,
2013-05-15 11:02:00,70.2,47.9,29.88,WNW,287,5.0,0.0,45,0.00,,---,0.00,VWS V14.01,2013-05-15 18:02:00,
2013-05-15 11:07:00,70.5,48.2,29.88,WNW,285,3.0,0.0,45,0.00,,---,0.00,VWS V14.01,2013-05-15 18:07:00,
2013-05-15 11:12:00,70.6,48.2,29.88,ESE,118,0.0,0.0,45,0.00,,---,0.00,VWS V14.01,2013-05-15 18:12:00,
2013-05-15 11:17:00,70.8,48.4,29.88,WNW,296,0.0,0.0,45,0.00,,---,0.00,VWS V14.01,2013-05-15 18:17:00,
2013-05-15 11:23:00,71.2,48.8,29.88,NNE,27,2.0,0.0,45,0.00,,---,0.00,VWS V14.01,2013-05-15 18:23:00,
2013-05-15 11:28:00,71.4,48.4,29.88,SSE,152,0.0,0.0,44,0.00,,---,0.00,VWS V14.01,2013-05-15 18:28:00,
2013-05-15 11:33:00,71.8,48.7,29.88,NNW,348,1.0,0.0,44,0.00,,---,0.00,VWS V14.01,2013-05-15 18:33:00,
2013-05-15 11:38:00,72.2,49.1,29.88,NE,37,0.0,0.0,44,0.00,,---,0.00,VWS V14.01,2013-05-15 18:38:00,
2013-05-15 11:44:00,72.8,50.2,29.88,NNE,22,1.0,0.0,45,0.00,,---,0.00,VWS V14.01,2013-05-15 18:44:00,
2013-05-15 11:49:00,72.8,48.4,29.88,NNW,327,0.0,0.0,42,0.00,,---,0.00,VWS V14.01,2013-05-15 18:49:00,
2013-05-15 11:54:00,73.0,48.6,29.88,NW,317,3.0,0.0,42,0.00,,---,0.00,VWS V14.01,2013-05-15 18:54:00,
2013-05-15 11:59:00,72.9,47.8,29.88,West,275,4.0,0.0,41,0.00,,---,0.00,VWS V14.01,2013-05-15 18:59:00,
2013-05-15 12:04:00,72.8,47.8,29.88,WNW,298,3.0,0.0,41,0.00,,---,0.00,VWS V14.01,2013-05-15 19:04:00,
2013-05-15 12:09:00,73.0,48.6,29.88,WNW,284,2.0,0.0,42,0.00,,---,0.00,VWS V14.01,2013-05-15 19:09:00,
2013-05-15 12:14:00,73.3,49.5,29.88,North,349,1.0,0.0,43,0.00,,---,0.00,VWS V14.01,2013-05-15 19:14:00,
2013-05-15 12:20:00,73.7,49.8,29.88,NE,51,0.0,0.0,43,0.00,,---,0.00,VWS V14.01,2013-05-15 19:20:00,
2013-05-15 12:25:00,74.0,49.5,29.88,West,279,5.0,0.0,42,0.00,,---,0.00,VWS V14.01,2013-05-15 19:25:00,
2013-05-15 12:30:00,73.9,50.0,29.88,ENE,74,0.0,0.0,43,0.00,,---,0.00,VWS V14.01,2013-05-15 19:30:00,
2013-05-15 12:35:00,74.2,48.3,29.87,WNW,299,3.0,0.0,40,0.00,,---,0.00,VWS V14.01,2013-05-15 19:35:00,
2013-05-15 12:40:00,74.5,48.6,29.87,NW,322,1.0,0.0,40,0.00,,---,0.00,VWS V14.01,2013-05-15 19:40:00,
2013-05-15 12:45:00,74.7,49.5,29.87,West,273,6.0,0.0,41,0.00,,---,0.00,VWS V14.01,2013-05-15 19:45:00,
2013-05-15 12:50:00,74.7,48.8,29.87,North,360,2.0,0.0,40,0.00,,---,0.00,VWS V14.01,2013-05-15 19:50:00,
2013-05-15 12:56:00,74.7,48.8,29.87,North,355,2.0,0.0,40,0.00,,---,0.00,VWS V14.01,2013-05-15 19:56:00,
2013-05-15 13:01:00,75.0,48.4,29.87,NW,307,4.0,0.0,39,0.00,,---,0.00,VWS V14.01,2013-05-15 20:01:00,
2013-05-15 13:06:00,75.2,49.9,29.87,North,9,1.0,0.0,41,0.00,,---,0.00,VWS V14.01,2013-05-15 20:06:00,
2013-05-15 13:11:00,75.8,49.8,29.87,NE,46,0.0,0.0,40,0.00,,---,0.00,VWS V14.01,2013-05-15 20:11:00,
2013-05-15 13:16:00,76.2,49.5,29.87,NNW,332,3.0,0.0,39,0.00,,---,0.00,VWS V14.01,2013-05-15 20:16:00,
2013-05-15 13:21:00,76.6,49.1,29.87,NNE,13,2.0,0.0,38,0.00,,---,0.00,VWS V14.01,2013-05-15 20:21:00,
2013-05-15 13:26:00,76.6,49.1,29.86,NW,308,1.0,0.0,38,0.00,,---,0.00,VWS V14.01,2013-05-15 20:26:00,
2013-05-15 13:31:00,76.8,50.0,29.86,NNE,22,0.0,0.0,39,0.00,,---,0.00,VWS V14.01,2013-05-15 20:31:00,
2013-05-15 13:37:00,77.3,49.7,29.86,NW,306,0.0,0.0,38,0.00,,---,0.00,VWS V14.01,2013-05-15 20:37:00,
2013-05-15 13:42:00,77.8,49.5,29.87,West,280,2.0,0.0,37,0.00,,---,0.00,VWS V14.01,2013-05-15 20:42:00,
2013-05-15 13:47:00,78.2,49.1,29.86,West,263,2.0,0.0,36,0.00,,---,0.00,VWS V14.01,2013-05-15 20:47:00,
2013-05-15 13:52:00,78.4,50.7,29.86,NNW,327,3.0,0.0,38,0.00,,---,0.00,VWS V14.01,2013-05-15 20:52:00,
2013-05-15 13:57:00,78.3,50.6,29.86,NW,313,2.0,0.0,38,0.00,,---,0.00,VWS V14.01,2013-05-15 20:57:00,
2013-05-15 14:02:00,78.4,49.3,29.86,West,281,1.0,0.0,36,0.00,,---,0.00,VWS V14.01,2013-05-15 21:02:00,
2013-05-15 14:07:00,78.6,49.4,29.86,NW,307,3.0,0.0,36,0.00,,---,0.00,VWS V14.01,2013-05-15 21:07:00,
2013-05-15 14:13:00,78.6,50.9,29.86,North,5,1.0,0.0,38,0.00,,---,0.00,VWS V14.01,2013-05-15 21:13:00,
2013-05-15 14:18:00,78.6,50.2,29.86,NE,38,1.0,0.0,37,0.00,,---,0.00,VWS V14.01,2013-05-15 21:18:00,
2013-05-15 14:23:00,78.5,50.1,29.86,ENE,71,1.0,0.0,37,0.00,,---,0.00,VWS V14.01,2013-05-15 21:23:00,
2013-05-15 14:28:00,78.3,50.6,29.86,NW,310,2.0,0.0,38,0.00,,---,0.00,VWS V14.01,2013-05-15 21:28:00,
2013-05-15 14:33:00,78.2,50.5,29.86,SSE,155,0.0,0.0,38,0.00,,---,0.00,VWS V14.01,2013-05-15 21:33:00,
2013-05-15 14:38:00,78.3,51.3,29.86,NNW,336,5.0,0.0,39,0.00,,---,0.00,VWS V14.01,2013-05-15 21:38:00,
2013-05-15 14:43:00,78.7,50.3,29.86,West,281,2.0,0.0,37,0.00,,---,0.00,VWS V14.01,2013-05-15 21:43:00,
2013-05-15 14:48:00,79.0,50.5,29.86,WNW,296,2.0,0.0,37,0.00,,---,0.00,VWS V14.01,2013-05-15 21:48:00,
2013-05-15 14:54:00,79.0,49.8,29.86,NW,312,0.0,0.0,36,0.00,,---,0.00,VWS V14.01,2013-05-15 21:54:00,
2013-05-15 14:59:00,79.0,51.2,29.86,WNW,294,2.0,0.0,38,0.00,,---,0.00,VWS V14.01,2013-05-15 21:59:00,
2013-05-15 15:04:00,79.0,49.8,29.86,NW,310,0.0,0.0,36,0.00,,---,0.00,VWS V14.01,2013-05-15 22:04:00,
2013-05-15 15:09:00,79.0,49.8,29.85,WNW,292,1.0,0.0,36,0.00,,---,0.00,VWS V14.01,2013-05-15 22:09:00,
2013-05-15 15:14:00,79.0,49.8,29.85,West,262,0.0,0.0,36,0.00,,---,0.00,VWS V14.01,2013-05-15 22:14:00,
2013-05-15 15:19:00,78.8,49.6,29.85,NW,315,3.0,0.0,36,0.00,,---,0.00,VWS V14.01,2013-05-15 22:19:00,
2013-05-15 15:24:00,78.6,50.2,29.85,NNE,14,1.0,0.0,37,0.00,,---,0.00,VWS V14.01,2013-05-15 22:24:00,
2013-05-15 15:29:00,78.5,50.8,29.85,SSE,149,1.0,0.0,38,0.00,,---,0.00,VWS V14.01,2013-05-15 22:29:00,
2013-05-15 15:34:00,78.4,49.3,29.84,SE,140,0.0,0.0,36,0.00,,---,0.00,VWS V14.01,2013-05-15 22:34:00,
2013-05-15 15:40:00,78.2,49.8,29.84,NNW,344,0.0,0.0,37,0.00,,---,0.00,VWS V14.01,2013-05-15 22:40:00,
2013-05-15 15:45:00,78.2,50.5,29.84,ENE,73,0.0,0.0,38,0.00,,---,0.00,VWS V14.01,2013-05-15 22:45:00,
2013-05-15 15:50:00,78.3,49.9,29.84,SW,223,0.0,0.0,37,0.00,,---,0.00,VWS V14.01,2013-05-15 22:50:00,
2013-05-15 15:55:00,78.5,50.1,29.84,NNE,17,0.0,0.0,37,0.00,,---,0.00,VWS V14.01,2013-05-15 22:55:00,
2013-05-15 16:00:00,78.7,50.3,29.84,North,349,0.0,0.0,37,0.00,,---,0.00,VWS V14.01,2013-05-15 23:00:00,
2013-05-15 16:05:00,78.9,49.7,29.84,NW,310,1.0,0.0,36,0.00,,---,0.00,VWS V14.01,2013-05-15 23:05:00,
2013-05-15 16:10:00,78.9,49.0,29.84,NNW,332,0.0,0.0,35,0.00,,---,0.00,VWS V14.01,2013-05-15 23:10:00,
2013-05-15 16:15:00,78.9,48.2,29.84,WSW,252,4.0,0.0,34,0.00,,---,0.00,VWS V14.01,2013-05-15 23:15:00,
2013-05-15 16:20:00,78.5,48.6,29.84,West,268,1.0,0.0,35,0.00,,---,0.00,VWS V14.01,2013-05-15 23:20:00,
2013-05-15 16:25:00,78.4,49.3,29.84,North,355,0.0,0.0,36,0.00,,---,0.00,VWS V14.01,2013-05-15 23:25:00,
2013-05-15 16:30:00,78.4,49.3,29.83,West,269,3.0,0.0,36,0.00,,---,0.00,VWS V14.01,2013-05-15 23:30:00,
2013-05-15 16:35:00,78.3,49.9,29.83,NNE,22,1.0,0.0,37,0.00,,---,0.00,VWS V14.01,2013-05-15 23:35:00,
2013-05-15 16:40:00,78.5,49.3,29.83,WNW,303,0.0,0.0,36,0.00,,---,0.00,VWS V14.01,2013-05-15 23:40:00,
2013-05-15 16:46:00,78.6,49.4,29.83,NW,321,1.0,0.0,36,0.00,,---,0.00,VWS V14.01,2013-05-15 23:46:00,
2013-05-15 16:51:00,78.7,48.8,29.83,WNW,292,2.0,0.0,35,0.00,,---,0.00,VWS V14.01,2013-05-15 23:51:00,
2013-05-15 16:56:00,78.6,49.4,29.83,NE,35,0.0,0.0,36,0.00,,---,0.00,VWS V14.01,2013-05-15 23:56:00,
2013-05-15 17:02:00,78.6,48.7,29.83,NW,313,1.0,0.0,35,0.00,,---,0.00,VWS V14.01,2013-05-16 00:02:00,
2013-05-15 17:07:00,78.5,48.6,29.83,North,9,0.0,0.0,35,0.00,,---,0.00,VWS V14.01,2013-05-16 00:07:00,
2013-05-15 17:12:00,78.4,49.3,29.83,North,11,0.0,0.0,36,0.00,,---,0.00,VWS V14.01,2013-05-16 00:12:00,
2013-05-15 17:17:00,78.4,49.3,29.83,SSW,193,0.0,0.0,36,0.00,,---,0.00,VWS V14.01,2013-05-16 00:17:00,
2013-05-15 17:23:00,78.1,49.7,29.83,North,355,4.0,0.0,37,0.00,,---,0.00,VWS V14.01,2013-05-16 00:23:00,
2013-05-15 17:28:00,77.8,48.0,29.83,WNW,282,2.0,0.0,35,0.00,,---,0.00,VWS V14.01,2013-05-16 00:28:00,
2013-05-15 17:33:00,77.6,47.8,29.83,NNW,346,1.0,0.0,35,0.00,,---,0.00,VWS V14.01,2013-05-16 00:33:00,
2013-05-15 17:38:00,77.3,48.3,29.83,NNE,30,0.0,0.0,36,0.00,,---,0.00,VWS V14.01,2013-05-16 00:38:00,
2013-05-15 17:43:00,77.1,48.1,29.83,North,9,1.0,0.0,36,0.00,,---,0.00,VWS V14.01,2013-05-16 00:43:00,
2013-05-15 17:48:00,77.1,48.8,29.83,WNW,296,4.0,0.0,37,0.00,,---,0.00,VWS V14.01,2013-05-16 00:48:00,
2013-05-15 17:53:00,77.1,48.1,29.83,NW,324,0.0,0.0,36,0.00,,---,0.00,VWS V14.01,2013-05-16 00:53:00,
2013-05-15 17:58:00,77.2,48.9,29.83,NNE,28,0.0,0.0,37,0.00,,---,0.00,VWS V14.01,2013-05-16 00:58:00,
2013-05-15 18:03:00,77.1,49.6,29.82,West,269,2.0,0.0,38,0.00,,---,0.00,VWS V14.01,2013-05-16 01:03:00,
2013-05-15 18:08:00,77.0,49.5,29.82,NE,40,2.0,0.0,38,0.00,,---,0.00,VWS V14.01,2013-05-16 01:08:00,
2013-05-15 18:13:00,76.8,49.3,29.82,WNW,289,0.0,0.0,38,0.00,,---,0.00,VWS V14.01,2013-05-16 01:13:00,
2013-05-15 18:18:00,76.7,49.2,29.82,West,273,0.0,0.0,38,0.00,,---,0.00,VWS V14.01,2013-05-16 01:18:00,
2013-05-15 18:24:00,76.4,49.6,29.82,WNW,284,1.0,0.0,39,0.00,,---,0.00,VWS V14.01,2013-05-16 01:24:00,
2013-05-15 18:29:00,76.1,48.7,29.82,NW,312,0.0,0.0,38,0.00,,---,0.00,VWS V14.01,2013-05-16 01:29:00,
2013-05-15 18:34:00,76.0,50.0,29.82,NW,316,1.0,0.0,40,0.00,,---,0.00,VWS V14.01,2013-05-16 01:34:00,
2013-05-15 18:39:00,75.8,49.1,29.82,NNW,348,0.0,0.0,39,0.00,,---,0.00,VWS V14.01,2013-05-16 01:39:00,
2013-05-15 18:44:00,75.5,49.5,29.82,NNW,344,0.0,0.0,40,0.00,,---,0.00,VWS V14.01,2013-05-16 01:44:00,
2013-05-15 18:49:00,75.3,49.3,29.82,NW,323,0.0,0.0,40,0.00,,---,0.00,VWS V14.01,2013-05-16 01:49:00,
2013-05-15 18:54:00,75.1,49.2,29.82,WNW,297,1.0,0.0,40,0.00,,---,0.00,VWS V14.01,2013-05-16 01:54:00,
2013-05-15 18:59:00,74.9,49.0,29.82,North,360,0.0,0.0,40,0.00,,---,0.00,VWS V14.01,2013-05-16 01:59:00,
2013-05-15 19:04:00,74.6,49.4,29.82,NW,310,0.0,0.0,41,0.00,,---,0.00,VWS V14.01,2013-05-16 02:04:00,
2013-05-15 19:09:00,74.5,50.6,29.82,WNW,283,0.0,0.0,43,0.00,,---,0.00,VWS V14.01,2013-05-16 02:09:00,
2013-05-15 19:14:00,74.3,51.0,29.82,NNW,330,0.0,0.0,44,0.00,,---,0.00,VWS V14.01,2013-05-16 02:14:00,
2013-05-15 19:19:00,74.0,51.3,29.82,NNW,331,0.0,0.0,45,0.00,,---,0.00,VWS V14.01,2013-05-16 02:19:00,
2013-05-15 19:24:00,73.8,50.5,29.82,WNW,286,0.0,0.0,44,0.00,,---,0.00,VWS V14.01,2013-05-16 02:24:00,
2013-05-15 19:29:00,73.6,50.4,29.82,WNW,292,0.0,0.0,44,0.00,,---,0.00,VWS V14.01,2013-05-16 02:29:00,
2013-05-15 19:35:00,73.2,50.6,29.82,WNW,291,0.0,0.0,45,0.00,,---,0.00,VWS V14.01,2013-05-16 02:35:00,
2013-05-15 19:40:00,72.8,50.8,29.82,WNW,291,0.0,0.0,46,0.00,,---,0.00,VWS V14.01,2013-05-16 02:40:00,
2013-05-15 19:45:00,72.5,50.0,29.82,WNW,292,0.0,0.0,45,0.00,,---,0.00,VWS V14.01,2013-05-16 02:45:00,
2013-05-15 19:50:00,72.1,50.8,29.82,WNW,300,0.0,0.0,47,0.00,,---,0.00,VWS V14.01,2013-05-16 02:50:00,
2013-05-15 19:55:00,71.8,51.1,29.82,WNW,300,0.0,0.0,48,0.00,,---,0.00,VWS V14.01,2013-05-16 02:55:00,
2013-05-15 20:00:00,71.5,50.8,29.82,WNW,300,0.0,0.0,48,0.00,,---,0.00,VWS V14.01,2013-05-16 03:00:00,
2013-05-15 20:05:00,71.1,51.0,29.82,NNW,327,0.0,0.0,49,0.00,,---,0.00,VWS V14.01,2013-05-16 03:05:00,
2013-05-15 20:11:00,70.6,50.5,29.82,NNE,26,0.0,0.0,49,0.00,,---,0.00,VWS V14.01,2013-05-16 03:11:00,
2013-05-15 20:16:00,70.2,50.7,29.82,NE,36,0.0,0.0,50,0.00,,---,0.00,VWS V14.01,2013-05-16 03:16:00,
2013-05-15 20:21:00,69.9,50.4,29.82,NE,38,0.0,0.0,50,0.00,,---,0.00,VWS V14.01,2013-05-16 03:21:00,
2013-05-15 20:26:00,69.5,50.1,29.83,NE,38,0.0,0.0,50,0.00,,---,0.00,VWS V14.01,2013-05-16 03:26:00,
2013-05-15 20:31:00,69.2,50.3,29.83,WSW,253,0.0,0.0,51,0.00,,---,0.00,VWS V14.01,2013-05-16 03:31:00,
2013-05-15 20:37:00,68.9,50.0,29.83,ENE,57,0.0,0.0,51,0.00,,---,0.00,VWS V14.01,2013-05-16 03:37:00,
2013-05-15 20:42:00,68.5,50.2,29.83,NE,46,0.0,0.0,52,0.00,,---,0.00,VWS V14.01,2013-05-16 03:42:00,
2013-05-15 20:47:00,68.3,50.5,29.82,WNW,290,1.0,0.0,53,0.00,,---,0.00,VWS V14.01,2013-05-16 03:47:00,
2013-05-15 20:53:00,67.9,50.2,29.82,NNW,340,0.0,0.0,53,0.00,,---,0.00,VWS V14.01,2013-05-16 03:53:00,
2013-05-15 20:58:00,67.6,50.4,29.83,SE,128,0.0,0.0,54,0.00,,---,0.00,VWS V14.01,2013-05-16 03:58:00,
2013-05-15 21:01:00,67.5,50.8,29.83,NW,320,1.0,0.0,55,0.00,,---,0.00,VWS V14.01,2013-05-16 04:01:00,
2013-05-15 21:02:00,67.4,50.7,29.83,NNW,339,0.0,0.0,55,0.00,,---,0.00,VWS V14.01,2013-05-16 04:02:00,
2013-05-15 21:07:00,67.1,50.4,29.83,SSE,154,0.0,0.0,55,0.00,,---,0.00,VWS V14.01,2013-05-16 04:07:00,
2013-05-15 21:12:00,66.8,50.1,29.83,ENE,67,0.0,0.0,55,0.00,,---,0.00,VWS V14.01,2013-05-16 04:12:00,
2013-05-15 21:17:00,66.6,50.4,29.83,ESE,117,0.0,0.0,56,0.00,,---,0.00,VWS V14.01,2013-05-16 04:17:00,
2013-05-15 21:22:00,66.3,50.2,29.83,WSW,244,0.0,0.0,56,0.00,,---,0.00,VWS V14.01,2013-05-16 04:22:00,
2013-05-15 21:27:00,66.1,50.0,29.83,SSE,149,0.0,0.0,56,0.00,,---,0.00,VWS V14.01,2013-05-16 04:27:00,
2013-05-15 21:32:00,65.9,49.8,29.83,East,95,1.0,0.0,56,0.00,,---,0.00,VWS V14.01,2013-05-16 04:32:00,
2013-05-15 21:38:00,65.7,49.6,29.83,East,94,0.0,0.0,56,0.00,,---,0.00,VWS V14.01,2013-05-16 04:38:00,
2013-05-15 21:43:00,65.6,50.0,29.83,ESE,118,0.0,0.0,57,0.00,,---,0.00,VWS V14.01,2013-05-16 04:43:00,
2013-05-15 21:48:00,65.4,49.8,29.83,ESE,118,0.0,0.0,57,0.00,,---,0.00,VWS V14.01,2013-05-16 04:48:00,
2013-05-15 21:53:00,65.2,49.6,29.83,East,100,0.0,0.0,57,0.00,,---,0.00,VWS V14.01,2013-05-16 04:53:00,
2013-05-15 21:58:00,65.1,49.5,29.83,WNW,284,0.0,0.0,57,0.00,,---,0.00,VWS V14.01,2013-05-16 04:58:00,
2013-05-15 22:03:00,64.9,49.3,29.84,West,272,0.0,0.0,57,0.00,,---,0.00,VWS V14.01,2013-05-16 05:03:00,
2013-05-15 22:08:00,64.8,49.2,29.84,East,84,0.0,0.0,57,0.00,,---,0.00,VWS V14.01,2013-05-16 05:08:00,
2013-05-15 22:13:00,64.6,49.5,29.84,SSW,193,0.0,0.0,58,0.00,,---,0.00,VWS V14.01,2013-05-16 05:13:00,
2013-05-15 22:18:00,64.4,49.8,29.84,ENE,63,0.0,0.0,59,0.00,,---,0.00,VWS V14.01,2013-05-16 05:18:00,
2013-05-15 22:23:00,64.1,49.5,29.84,ENE,74,0.0,0.0,59,0.00,,---,0.00,VWS V14.01,2013-05-16 05:23:00,
2013-05-15 22:28:00,63.9,49.3,29.84,East,92,0.0,0.0,59,0.00,,---,0.00,VWS V14.01,2013-05-16 05:28:00,
2013-05-15 22:33:00,63.8,49.7,29.83,ENE,74,0.0,0.0,60,0.00,,---,0.00,VWS V14.01,2013-05-16 05:33:00,
2013-05-15 22:38:00,63.8,49.7,29.83,SE,146,0.0,0.0,60,0.00,,---,0.00,VWS V14.01,2013-05-16 05:38:00,
2013-05-15 22:43:00,63.6,49.0,29.83,East,98,0.0,0.0,59,0.00,,---,0.00,VWS V14.01,2013-05-16 05:43:00,
2013-05-15 22:48:00,63.5,48.9,29.83,SE,134,0.0,0.0,59,0.00,,---,0.00,VWS V14.01,2013-05-16 05:48:00,
2013-05-15 22:53:00,63.4,49.3,29.83,SE,125,1.0,0.0,60,0.00,,---,0.00,VWS V14.01,2013-05-16 05:53:00,
2013-05-15 22:59:00,63.3,49.2,29.83,SE,125,0.0,0.0,60,0.00,,---,0.00,VWS V14.01,2013-05-16 05:59:00,
2013-05-15 23:04:00,63.2,49.1,29.83,SE,125,0.0,0.0,60,0.00,,---,0.00,VWS V14.01,2013-05-16 06:04:00,
2013-05-15 23:09:00,63.1,49.0,29.83,SSE,153,0.0,0.0,60,0.00,,---,0.00,VWS V14.01,2013-05-16 06:09:00,
2013-05-15 23:14:00,63.1,49.0,29.83,SSE,153,0.0,0.0,60,0.00,,---,0.00,VWS V14.01,2013-05-16 06:14:00,
2013-05-15 23:19:00,62.9,48.8,29.83,SSE,153,0.0,0.0,60,0.00,,---,0.00,VWS V14.01,2013-05-16 06:19:00,
2013-05-15 23:24:00,62.8,49.2,29.83,SE,134,0.0,0.0,61,0.00,,---,0.00,VWS V14.01,2013-05-16 06:24:00,
2013-05-15 23:29:00,62.7,49.1,29.83,SE,140,0.0,0.0,61,0.00,,---,0.00,VWS V14.01,2013-05-16 06:29:00,
2013-05-15 23:34:00,62.7,49.1,29.83,SSE,151,0.0,0.0,61,0.00,,---,0.00,VWS V14.01,2013-05-16 06:34:00,
2013-05-15 23:39:00,62.6,49.4,29.83,East,86,0.0,0.0,62,0.00,,---,0.00,VWS V14.01,2013-05-16 06:39:00,
2013-05-15 23:44:00,62.5,49.3,29.83,East,97,0.0,0.0,62,0.00,,---,0.00,VWS V14.01,2013-05-16 06:44:00,
2013-05-15 23:49:00,62.4,49.2,29.83,SSE,164,0.0,0.0,62,0.00,,---,0.00,VWS V14.01,2013-05-16 06:49:00,
2013-05-15 23:54:00,62.3,49.6,29.84,East,90,0.0,0.0,63,0.00,,---,0.00,VWS V14.01,2013-05-16 06:54:00,
2013-05-15 23:59:00,62.1,49.4,29.83,South,175,0.0,0.0,63,0.00,,---,0.00,VWS V14.01,2013-05-16 06:59:00,